DAL2858 KSEA-KSLC

Flight info

Callsign DAL2858
Flight time N/A
Altitude 37000
Route SUMMA2 SUMMA WANTA Q154 BYI SKEES6
Aircraft A321/M-SDE3FGHIRWY/LB1

Departure

Time 2026-05-07 18:44
Airport Seattle–Tacoma International Airport (KSEA)

Arrival

Time N/A
Airport Salt Lake City International Airport (KSLC)
Time Latitude Longitude Altitude Speed Heading
2026-05-07 18:20 47.44171 -122.30312 391 ft 0 kts 300°
2026-05-07 18:31 47.44171 -122.30311 391 ft 1 kts 300°
2026-05-07 18:32 47.44162 -122.30280 391 ft 4 kts 271°
2026-05-07 18:32 47.44168 -122.30252 391 ft 4 kts 198°
2026-05-07 18:32 47.44181 -122.30249 391 ft 1 kts 177°
2026-05-07 18:32 47.44182 -122.30249 392 ft 1 kts 177°
2026-05-07 18:36 47.44179 -122.30249 391 ft 2 kts 178°
2026-05-07 18:36 47.44141 -122.30245 391 ft 8 kts 172°
2026-05-07 18:36 47.44060 -122.30242 389 ft 15 kts 189°
2026-05-07 18:37 47.43994 -122.30386 386 ft 20 kts 262°
2026-05-07 18:37 47.43992 -122.30449 385 ft 0 kts 269°
2026-05-07 18:38 47.43992 -122.30450 385 ft 1 kts 269°
2026-05-07 18:38 47.43992 -122.30491 385 ft 8 kts 271°
2026-05-07 18:38 47.44010 -122.30614 384 ft 16 kts 308°
2026-05-07 18:39 47.44127 -122.30633 387 ft 20 kts 359°
2026-05-07 18:39 47.44264 -122.30634 390 ft 17 kts 358°
2026-05-07 18:39 47.44373 -122.30633 391 ft 16 kts
2026-05-07 18:39 47.44492 -122.30631 393 ft 18 kts
2026-05-07 18:40 47.44623 -122.30631 400 ft 19 kts 358°
2026-05-07 18:40 47.44759 -122.30629 401 ft 21 kts
2026-05-07 18:40 47.44902 -122.30630 408 ft 18 kts 357°
2026-05-07 18:40 47.45009 -122.30628 412 ft 12 kts
2026-05-07 18:41 47.45078 -122.30626 414 ft 9 kts
2026-05-07 18:41 47.45157 -122.30625 412 ft 14 kts 360°
2026-05-07 18:41 47.45272 -122.30623 420 ft 19 kts
2026-05-07 18:41 47.45418 -122.30622 423 ft 23 kts
2026-05-07 18:42 47.45596 -122.30620 435 ft 27 kts
2026-05-07 18:42 47.45779 -122.30620 430 ft 26 kts
2026-05-07 18:42 47.45957 -122.30618 433 ft 24 kts
2026-05-07 18:42 47.46124 -122.30616 433 ft 26 kts
2026-05-07 18:43 47.46305 -122.30616 432 ft 19 kts
2026-05-07 18:43 47.46377 -122.30700 443 ft 14 kts 259°
2026-05-07 18:43 47.46307 -122.30777 435 ft 14 kts 180°
2026-05-07 18:43 47.46137 -122.30779 427 ft 52 kts 180°
2026-05-07 18:44 47.45528 -122.30785 426 ft 119 kts 180°
2026-05-07 18:44 47.44518 -122.30794 401 ft 168 kts 180°
2026-05-07 18:44 47.43362 -122.30812 1030 ft 164 kts 181°
2026-05-07 18:44 47.42227 -122.30815 1680 ft 166 kts 180°
2026-05-07 18:45 47.41040 -122.30817 2198 ft 177 kts 181°
2026-05-07 18:45 47.39735 -122.30822 2509 ft 196 kts 180°
2026-05-07 18:45 47.38301 -122.30823 2811 ft 219 kts 180°
2026-05-07 18:45 47.36673 -122.30833 3148 ft 246 kts 180°
2026-05-07 18:46 47.34903 -122.30847 3775 ft 260 kts 180°
2026-05-07 18:46 47.33066 -122.30864 4618 ft 267 kts 180°
2026-05-07 18:46 47.31189 -122.30887 5443 ft 273 kts 180°
2026-05-07 18:46 47.29273 -122.30915 6266 ft 277 kts 181°
2026-05-07 18:47 47.27335 -122.30945 7083 ft 281 kts 181°
2026-05-07 18:47 47.25366 -122.30970 7850 ft 285 kts 180°
2026-05-07 18:47 47.23417 -122.30395 8587 ft 291 kts 155°
2026-05-07 18:47 47.21606 -122.29023 9365 ft 295 kts 155°
2026-05-07 18:48 47.19698 -122.27864 10152 ft 299 kts 160°
2026-05-07 18:48 47.17663 -122.26825 10454 ft 321 kts 162°
2026-05-07 18:48 47.15458 -122.25781 10635 ft 345 kts 162°
2026-05-07 18:48 47.13096 -122.24672 10760 ft 368 kts 162°
2026-05-07 18:49 47.10608 -122.23476 11085 ft 382 kts 162°
2026-05-07 18:49 47.08074 -122.22221 11691 ft 387 kts 161°
2026-05-07 18:49 47.05510 -122.20927 12333 ft 392 kts 161°
2026-05-07 18:49 47.02924 -122.19609 12980 ft 395 kts 161°
2026-05-07 18:50 47.00314 -122.18274 13623 ft 400 kts 162°
2026-05-07 18:50 46.97673 -122.16923 14217 ft 403 kts 162°
2026-05-07 18:50 46.95016 -122.15565 14783 ft 407 kts 162°
2026-05-07 18:50 46.92333 -122.14200 15348 ft 410 kts 162°
2026-05-07 18:51 46.89629 -122.12831 15883 ft 413 kts 162°
2026-05-07 18:51 46.86900 -122.11453 16420 ft 416 kts 162°
2026-05-07 18:51 46.84146 -122.10066 16883 ft 421 kts 162°
2026-05-07 18:51 46.81359 -122.08663 17399 ft 425 kts 162°
2026-05-07 18:52 46.78553 -122.07251 17921 ft 429 kts 162°
2026-05-07 18:52 46.75725 -122.05829 18459 ft 431 kts 162°
2026-05-07 18:52 46.72910 -122.04417 18865 ft 435 kts 162°
2026-05-07 18:52 46.70003 -122.02958 19325 ft 438 kts 162°
2026-05-07 18:53 46.67121 -122.01462 19757 ft 441 kts 158°
2026-05-07 18:53 46.64420 -121.99452 20201 ft 444 kts 148°
2026-05-07 18:53 46.61946 -121.96730 20622 ft 448 kts 137°
2026-05-07 18:53 46.59829 -121.93381 21036 ft 452 kts 127°
2026-05-07 18:54 46.58121 -121.89535 21456 ft 455 kts 119°
2026-05-07 18:54 46.56546 -121.85526 21911 ft 457 kts 119°
2026-05-07 18:54 46.54958 -121.81514 22328 ft 460 kts 120°
2026-05-07 18:54 46.53351 -121.77482 22729 ft 463 kts 120°
2026-05-07 18:55 46.51729 -121.73420 23153 ft 466 kts 120°
2026-05-07 18:55 46.50097 -121.69336 23553 ft 469 kts 120°
2026-05-07 18:55 46.48458 -121.65233 23903 ft 471 kts 120°
2026-05-07 18:55 46.46807 -121.61108 24237 ft 474 kts 120°
2026-05-07 18:56 46.45109 -121.56985 24553 ft 478 kts 121°
2026-05-07 18:56 46.43362 -121.52873 24840 ft 481 kts 122°
2026-05-07 18:56 46.41577 -121.48754 25136 ft 484 kts 122°
2026-05-07 18:56 46.39767 -121.44611 25451 ft 487 kts 122°
2026-05-07 18:57 46.37951 -121.40450 25742 ft 490 kts 122°
2026-05-07 18:57 46.36131 -121.36257 26030 ft 493 kts 122°
2026-05-07 18:57 46.34921 -121.33460 26220 ft 496 kts 122°
2026-05-07 18:57 46.33086 -121.29212 26498 ft 499 kts 122°
2026-05-07 18:58 46.31244 -121.24940 26787 ft 502 kts 122°
2026-05-07 18:58 46.28789 -121.19237 27158 ft 506 kts 122°
2026-05-07 18:58 46.27530 -121.16320 27413 ft 506 kts 122°
2026-05-07 18:58 46.25664 -121.12009 27801 ft 506 kts 122°
2026-05-07 18:59 46.23793 -121.07703 28165 ft 506 kts 122°
2026-05-07 18:59 46.21919 -121.03395 28520 ft 507 kts 122°
2026-05-07 18:59 46.20035 -120.99085 28888 ft 507 kts 122°
2026-05-07 18:59 46.18150 -120.94786 29261 ft 507 kts 122°
2026-05-07 19:00 46.16261 -120.90478 29638 ft 508 kts 122°
2026-05-07 19:00 46.14367 -120.86155 29983 ft 509 kts 122°
2026-05-07 19:00 46.12474 -120.81834 30308 ft 510 kts 122°
2026-05-07 19:00 46.10579 -120.77512 30622 ft 510 kts 122°
2026-05-07 19:01 46.08683 -120.73197 30956 ft 510 kts 122°
2026-05-07 19:01 46.06784 -120.68886 31303 ft 510 kts 122°
2026-05-07 19:01 46.04885 -120.64581 31636 ft 509 kts 122°
2026-05-07 19:01 46.02985 -120.60282 31961 ft 509 kts 122°
2026-05-07 19:02 46.01079 -120.55982 32295 ft 509 kts 122°
2026-05-07 19:02 45.99176 -120.51696 32654 ft 509 kts 122°
2026-05-07 19:02 45.97270 -120.47410 33015 ft 508 kts 122°
2026-05-07 19:02 45.95367 -120.43132 33355 ft 508 kts 122°
2026-05-07 19:03 45.93463 -120.38859 33688 ft 508 kts 122°
2026-05-07 19:03 45.91578 -120.34635 34033 ft 508 kts 122°
2026-05-07 19:03 45.89673 -120.30368 34320 ft 508 kts 122°
2026-05-07 19:03 45.87763 -120.26100 34614 ft 508 kts 122°
2026-05-07 19:04 45.85853 -120.21840 34901 ft 507 kts 123°
2026-05-07 19:04 45.83942 -120.17586 35182 ft 508 kts 123°
2026-05-07 19:04 45.82028 -120.13328 35450 ft 508 kts 123°
2026-05-07 19:04 45.80115 -120.09080 35725 ft 508 kts 123°
2026-05-07 19:05 45.78198 -120.04827 36005 ft 508 kts 123°
2026-05-07 19:05 45.76281 -120.00579 36293 ft 507 kts 123°
2026-05-07 19:05 45.74367 -119.96345 36593 ft 507 kts 123°
2026-05-07 19:05 45.72446 -119.92103 36823 ft 508 kts 123°
2026-05-07 19:06 45.70516 -119.87851 37011 ft 510 kts 123°
2026-05-07 19:06 45.64707 -119.75096 37072 ft 510 kts 123°
2026-05-07 19:07 45.60829 -119.66600 37073 ft 510 kts 123°
2026-05-07 19:07 45.56947 -119.58123 37078 ft 510 kts 123°
2026-05-07 19:08 45.53059 -119.49654 37082 ft 510 kts 123°
2026-05-07 19:08 45.49157 -119.41190 37087 ft 511 kts 123°
2026-05-07 19:09 45.45240 -119.32738 37091 ft 511 kts 123°
2026-05-07 19:09 45.41324 -119.24293 37089 ft 511 kts 123°
2026-05-07 19:10 45.37434 -119.15904 37089 ft 511 kts 123°
2026-05-07 19:10 45.33508 -119.07473 37087 ft 511 kts 123°
2026-05-07 19:11 45.29566 -118.99063 37090 ft 511 kts 123°
2026-05-07 19:11 45.25618 -118.90663 37075 ft 512 kts 123°
2026-05-07 19:12 45.21664 -118.82255 37072 ft 512 kts 123°
2026-05-07 19:12 45.17708 -118.73852 37067 ft 513 kts 123°
2026-05-07 19:13 45.13736 -118.65447 37085 ft 513 kts 123°
2026-05-07 19:13 45.09751 -118.57059 37090 ft 513 kts 123°
2026-05-07 19:14 45.05762 -118.48686 37090 ft 513 kts 123°
2026-05-07 19:14 45.01763 -118.40326 37088 ft 513 kts 123°
2026-05-07 19:15 44.97715 -118.32006 37077 ft 513 kts 126°
2026-05-07 19:15 44.93426 -118.23949 37079 ft 513 kts 128°
2026-05-07 19:16 44.89023 -118.16022 37085 ft 513 kts 128°
2026-05-07 19:16 44.84661 -118.08076 37135 ft 512 kts 127°
2026-05-07 19:17 44.80346 -118.00069 37089 ft 513 kts 127°
2026-05-07 19:17 44.76030 -117.92058 37090 ft 514 kts 127°
2026-05-07 19:18 44.71680 -117.84057 37096 ft 515 kts 127°
2026-05-07 19:18 44.67305 -117.76067 37093 ft 516 kts 127°
2026-05-07 19:19 44.62929 -117.68086 37079 ft 516 kts 127°
2026-05-07 19:19 44.58551 -117.60108 37060 ft 516 kts 127°
2026-05-07 19:20 44.54163 -117.52141 37052 ft 516 kts 127°
2026-05-07 19:20 44.49776 -117.44187 37053 ft 516 kts 127°
2026-05-07 19:21 44.45382 -117.36251 37049 ft 516 kts 127°
2026-05-07 19:21 44.40986 -117.28327 37044 ft 516 kts 127°
2026-05-07 19:22 44.36587 -117.20419 37050 ft 515 kts 128°
2026-05-07 19:22 44.32349 -117.12353 37048 ft 514 kts 123°
2026-05-07 19:23 44.28397 -117.04038 37064 ft 515 kts 122°
2026-05-07 19:23 44.24461 -116.95685 37045 ft 515 kts 123°
2026-05-07 19:24 44.20437 -116.87410 37049 ft 516 kts 124°
2026-05-07 19:24 44.16358 -116.79192 37053 ft 516 kts 124°
2026-05-07 19:25 44.12275 -116.70968 37047 ft 515 kts 124°
2026-05-07 19:25 44.08213 -116.62753 37046 ft 515 kts 124°
2026-05-07 19:26 44.04155 -116.54550 37041 ft 515 kts 124°
2026-05-07 19:26 44.00094 -116.46358 37016 ft 515 kts 124°
2026-05-07 19:27 43.96047 -116.38239 37036 ft 514 kts 124°
2026-05-07 19:27 43.91969 -116.30096 37039 ft 514 kts 124°
2026-05-07 19:28 43.87887 -116.21968 37035 ft 514 kts 124°
2026-05-07 19:28 43.83798 -116.13848 37031 ft 514 kts 124°
2026-05-07 19:29 43.79709 -116.05734 37025 ft 513 kts 124°
2026-05-07 19:29 43.75614 -115.97625 37024 ft 513 kts 124°
2026-05-07 19:30 43.71516 -115.89537 37023 ft 513 kts 124°
2026-05-07 19:30 43.67413 -115.81473 37017 ft 513 kts 124°
2026-05-07 19:31 43.63289 -115.73422 37014 ft 513 kts 125°
2026-05-07 19:31 43.59035 -115.65512 37005 ft 513 kts 127°
2026-05-07 19:32 43.54685 -115.57712 37013 ft 513 kts 127°
2026-05-07 19:32 43.50345 -115.49904 37016 ft 513 kts 127°
2026-05-07 19:33 43.46043 -115.42071 37026 ft 513 kts 127°
2026-05-07 19:33 43.41739 -115.34241 37005 ft 513 kts 127°
2026-05-07 19:34 43.37410 -115.26422 37007 ft 514 kts 127°
2026-05-07 19:34 43.33061 -115.18618 37004 ft 514 kts 127°
2026-05-07 19:35 43.28720 -115.10831 36998 ft 514 kts 127°
2026-05-07 19:35 43.24383 -115.03039 36995 ft 514 kts 127°
2026-05-07 19:36 43.20042 -114.95258 37007 ft 514 kts 127°
2026-05-07 19:36 43.16421 -114.88800 37023 ft 514 kts 127°
2026-05-07 19:37 43.12056 -114.81037 37043 ft 514 kts 127°
2026-05-07 19:37 43.07689 -114.73301 37064 ft 514 kts 127°
2026-05-07 19:38 43.03309 -114.65568 37075 ft 514 kts 127°
2026-05-07 19:38 42.98935 -114.57839 37086 ft 514 kts 127°
2026-05-07 19:39 42.94581 -114.50161 36802 ft 515 kts 127°
2026-05-07 19:39 42.92386 -114.46302 36531 ft 515 kts 127°
2026-05-07 19:39 42.90192 -114.42443 36261 ft 515 kts 127°
2026-05-07 19:40 42.87991 -114.38584 36040 ft 515 kts 127°
2026-05-07 19:40 42.85785 -114.34732 35713 ft 515 kts 127°
2026-05-07 19:40 42.83579 -114.30892 35464 ft 515 kts 127°
2026-05-07 19:40 42.81372 -114.27049 35216 ft 515 kts 127°
2026-05-07 19:41 42.79164 -114.23202 34989 ft 515 kts 127°
2026-05-07 19:41 42.76958 -114.19362 34984 ft 515 kts 127°
2026-05-07 19:41 42.72542 -114.11679 34997 ft 515 kts 127°
2026-05-07 19:42 42.68130 -114.04015 35029 ft 514 kts 127°
2026-05-07 19:42 42.63709 -113.96366 35056 ft 514 kts 127°
2026-05-07 19:43 42.59275 -113.88734 35076 ft 514 kts 127°
2026-05-07 19:43 42.54386 -113.81668 35083 ft 514 kts 135°
2026-05-07 19:44 42.49291 -113.74843 35087 ft 516 kts 135°
2026-05-07 19:44 42.44179 -113.68020 35063 ft 515 kts 135°
2026-05-07 19:45 42.39073 -113.61213 35045 ft 515 kts 135°
2026-05-07 19:45 42.33968 -113.54413 35023 ft 515 kts 135°
2026-05-07 19:46 42.28862 -113.47627 35006 ft 515 kts 135°
2026-05-07 19:46 42.23744 -113.40857 34990 ft 516 kts 136°
2026-05-07 19:47 42.18616 -113.34076 34986 ft 517 kts 136°
2026-05-07 19:47 42.13484 -113.27295 34981 ft 516 kts 135°
2026-05-07 19:48 42.08346 -113.20536 34992 ft 516 kts 135°
2026-05-07 19:48 42.03207 -113.13795 34974 ft 516 kts 136°
2026-05-07 19:49 41.98059 -113.07069 34968 ft 516 kts 135°
2026-05-07 19:49 41.92912 -113.00352 34975 ft 516 kts 135°
2026-05-07 19:50 41.87765 -112.93640 34978 ft 516 kts 135°
2026-05-07 19:50 41.82631 -112.86953 34977 ft 513 kts 135°
2026-05-07 19:51 41.77513 -112.80315 34980 ft 512 kts 136°
2026-05-07 19:51 41.72384 -112.73694 34983 ft 513 kts 136°
2026-05-07 19:52 41.67241 -112.67060 35003 ft 514 kts 135°
2026-05-07 19:52 41.62093 -112.60421 34986 ft 514 kts 135°
2026-05-07 19:53 41.56942 -112.53789 34996 ft 514 kts 136°
2026-05-07 19:53 41.51783 -112.47207 35009 ft 513 kts 136°
2026-05-07 19:54 41.46475 -112.40912 34991 ft 514 kts 139°
2026-05-07 19:54 41.41301 -112.34339 35006 ft 515 kts 133°
2026-05-07 19:55 41.36396 -112.27490 35026 ft 499 kts 132°
2026-05-07 19:55 41.34054 -112.24151 35060 ft 488 kts 131°
2026-05-07 19:55 41.31754 -112.20852 35060 ft 486 kts 131°
2026-05-07 19:56 41.27148 -112.14290 35089 ft 485 kts 132°
2026-05-07 19:56 41.22517 -112.07756 35112 ft 484 kts 129°